[ ตารางข้อมูล ] [ Min-Max ] [ วันนี้2 ] [ วันนี้4 ] [ เทียบ-A 3วัน ] [ เทียบ-B 4วัน ]   

วันนี้4   [ ◀ ช่วงเก่ากว่า ] [ ช่วงที่ 10 ] [ ช่วงใหม่กว่า ▶ ] [ ล่าสุด ]    [ 3 ชั่วโมง ] [ 6 ชั่วโมง ] [ 12 ชั่วโมง ] [ 24 ชั่วโมง ]   วันนี้4

อุณภูมิในตู้ Knockdown4529  ราย 24 ชั่วโมง  ที่วัดได้ ในช่วงวันเวลา 21/08/2026 (12:51) ถึง 22/08/2026 (12:51) 
ความชื้นในตู้ Knockdown4529  ราย 24 ชั่วโมง  ที่วัดได้ ในช่วงวันเวลา 21/08/2026 (12:51) ถึง 22/08/2026 (12:51) 
การใช้ไฟฟ้าในตู้ Knockdown4529  ราย 24 ชั่วโมง  ที่วัดได้ ในช่วงวันเวลา 21/08/2026 (12:51) ถึง 22/08/2026 (12:51) 

  DS18B20SHTC3PZEM-004TWiFi 
IDDate d/m/Y & Timedata1
สูง
data2
ต่ำ
data3
นอก
temp
pcb
hum
pcb
VoltAmpWattrssiTime
 14960  22/08/2026 12:49:22  34.9  32.8  35.5  35.5  61.0  232.3  0.04  4.5  -80  12:49 
 14959  22/08/2026 12:44:39  34.9  32.8  35.2  35.4  61.1  232.9  0.04  4.5  -78  12:44 
 14958  22/08/2026 12:39:55  34.8  32.8  34.9  35.4  61.1  233.3  0.04  4.5  -76  12:39 
 14957  22/08/2026 12:35:11  34.8  32.7  34.9  35.3  61.0  232.1  0.04  4.6  -76  12:35 
 14956  22/08/2026 12:30:27  34.8  32.6  34.7  35.4  61.2  233.6  0.04  4.6  -78  12:30 
 14955  22/08/2026 12:25:44  34.7  32.6  35.2  35.4  61.1  232.7  0.04  4.6  -76  12:25 
 14954  22/08/2026 12:21:00  34.6  32.5  35.1  35.3  61.3  231.7  0.04  4.5  -78  12:21 
 14953  22/08/2026 12:16:16  34.6  32.4  35.1  35.2  61.3  232.8  0.04  4.5  -77  12:16 
 14952  22/08/2026 12:11:33  34.5  32.4  34.8  35.1  61.3  232.9  0.04  4.6  -73  12:11 
 14951  22/08/2026 12:06:50  34.4  32.3  34.8  35.1  61.3  233.5  0.04  4.6  -76  12:06 
 14950  22/08/2026 12:02:06  34.3  32.2  34.9  35.0  61.3  232.6  0.04  4.5  -76  12:02 
 14949  22/08/2026 11:57:22  34.2  32.2  34.6  34.9  61.4  232.5  0.04  4.5  -77  11:57 
 14948  22/08/2026 11:52:39  34.2  32.1  34.9  35.0  61.4  233.2  0.04  4.6  -77  11:52 
 14947  22/08/2026 11:47:54  34.1  32.1  34.7  34.8  61.5  232.9  0.04  4.6  -76  11:47 
 14946  22/08/2026 11:43:11  34.0  32.0  34.6  34.8  61.3  232.7  0.04  4.6  -77  11:43 
 14945  22/08/2026 11:38:28  33.9  31.9  34.7  34.6  61.5  232.4  0.04  4.6  -77  11:38 
 14944  22/08/2026 11:33:45  33.8  31.9  34.3  34.4  61.5  232.3  0.04  4.6  -79  11:33 
 14943  22/08/2026 11:29:01  33.8  31.8  34.4  34.6  61.6  232.2  0.04  4.6  -80  11:29 
 14942  22/08/2026 11:24:18  33.7  31.8  34.3  34.3  61.5  232.1  0.04  4.6  -80  11:24 
 14941  22/08/2026 11:19:34  33.6  31.7  34.1  34.3  61.6  232.6  0.04  4.6  -77  11:19 
 14940  22/08/2026 11:14:51  33.4  31.6  34.4  34.2  61.6  231.5  0.04  4.6  -77  11:14 
 14939  22/08/2026 11:10:07  33.3  31.6  33.9  34.1  61.6  231.9  0.04  4.6  -78  11:10 
 14938  22/08/2026 11:05:24  33.2  31.5  34.0  34.1  61.8  231.5  0.04  4.6  -80  11:05 
 14937  22/08/2026 11:00:41  33.1  31.4  33.8  33.9  61.8  231.8  0.04  4.6  -79  11:00 

Data every 5 minute.


ใช้เวลาประมวลผล 0.01744 วินาที